{"data":{"norad_id":40030,"intl_designator":"2014-033W","name":"DTUSAT-2","alt_names":[],"object_type":"PAYLOAD","status":"ACTIVE","operator":null,"country":"DEN","launch_date":"2014-06-19","launch_site_code":"DLS","launch_vehicle":null,"mission":null,"orbit_class":"UNKNOWN","rcs_meters":0.0081,"size_class":null,"mass_kg":null,"dimensions":null,"purposes":[],"wikipedia_slug":null,"has_3d_model":false,"image_url":null,"decayed_at":null,"tle_current":{"epoch":"2026-05-24T22:05:55.352256Z","epoch_age_seconds":78012,"freshness":"FRESH","line1":"1 40030U 14033W   26144.92077954  .00006436  00000+0  35174-3 0  9999","line2":"2 40030  98.0868 141.1777 0006674 325.8981  34.1819 15.14666249649161","mean_motion":15.14666249,"eccentricity":0.0006674,"inclination_deg":98.0868,"raan_deg":141.1777,"arg_perigee_deg":325.8981,"mean_anomaly_deg":34.1819,"bstar":0.00035174,"rev_number":64916,"period_min":95.07044875072,"perigee_km":517.38683947959,"apogee_km":526.59713164953,"semimajor_km":6900.1289855646,"source":"CELESTRAK","updated_at":"2026-05-25T13:37:55.444408Z"}}}